VE3GSI Weather Reports


time (UTC)temp
F
wind
direction
speed
knots
gust
knots
rain 1hr
in
rain 24hr
in
rain mn
in
humidity
%
barometer
mb
20260510120606 47 359 7.0 11.3 0.00 0.09 0.00 72 1010.1
20260510115606 47 359 4.3 10.4 0.00 0.09 0.00 74 1009.8
20260510114606 47 359 5.2 10.4 0.00 0.09 0.00 74 1009.7
20260510113606 46 359 5.2 10.4 0.00 0.09 0.00 74 1009.5
20260510112606 46 359 3.5 10.4 0.00 0.09 0.00 74 1009.3
20260510110606 45 359 4.3 7.8 0.00 0.09 0.00 75 1008.9
20260510104606 45 251 2.6 7.0 0.00 0.09 0.00 76 1008.4
20260510102605 43 253 1.7 5.2 0.00 0.09 0.00 77 1007.9
20260510101605 43 247 2.6 7.0 0.00 0.09 0.00 77 1007.8
20260510100605 44 269 1.7 5.2 0.00 0.09 0.00 75 1007.6
20260510095606 44 266 3.5 7.8 0.00 0.09 0.00 74 1007.4
20260510094606 44 255 3.5 7.0 0.00 0.09 0.00 74 1007.3
20260510093605 45 254 1.7 6.1 0.00 0.09 0.00 73 1007.2
20260510092605 45 260 2.6 6.1 0.00 0.09 0.00 73 1007.1
20260510091605 46 284 3.5 6.1 0.00 0.09 0.00 70 1006.7
20260510085606 47 276 6.1 10.4 0.00 0.09 0.00 68 1006.4
20260510084605 48 250 3.5 8.7 0.00 0.09 0.00 68 1006.3
20260510083606 48 277 2.6 8.7 0.00 0.09 0.00 69 1006.3
20260510082605 48 258 2.6 11.3 0.00 0.09 0.00 69 1006.2
20260510081605 48 298 3.5 7.8 0.00 0.09 0.00 68 1006.3
20260510075605 48 248 5.2 11.3 0.00 0.09 0.00 69 1006.0
20260510074606 48 255 3.5 10.4 0.00 0.09 0.00 71 1005.8
20260510073605 48 262 5.2 10.4 0.00 0.09 0.00 73 1005.7
20260510072606 48 244 2.6 7.8 0.00 0.09 0.00 77 1005.6
20260510071606 48 253 4.3 7.0 0.00 0.09 0.00 79 1005.5
20260510065606 48 260 1.7 4.3 0.00 0.09 0.00 87 1005.5
20260510063605 48 257 2.6 7.8 0.00 0.09 0.00 89 1005.4
20260510062606 48 259 2.6 5.2 0.00 0.09 0.00 91 1005.2
20260510060605 47 258 3.5 10.4 0.00 0.09 0.00 98 1005.1
20260510055606 45 265 1.7 4.3 0.00 0.09 0.00 98 1005.1
20260510054605 44 236 2.6 5.2 0.00 0.09 0.00 96 1005.1
20260510053605 44 215 0.9 1.7 0.00 0.09 0.00 96 1004.7
20260510052605 45 215 0.0 1.7 0.00 0.09 0.00 95 1004.4
20260510050606 46 215 0.9 2.6 0.00 0.09 0.00 96 1004.4
20260510045605 47 215 0.0 0.9 0.00 0.09 0.00 96 1004.2
20260510043605 47 214 0.9 1.7 0.00 0.09 0.00 96 1004.2
20260510042605 48 214 0.9 1.7 0.00 0.09 0.00 96 1003.9
20260510041606 48 213 1.7 2.6 0.00 0.09 0.00 96 1003.9
20260510034605 49 218 1.7 4.3 0.00 0.09 0.09 96 1003.5
20260510033605 49 220 1.7 4.3 0.00 0.09 0.09 95 1003.5
20260510032605 49 226 1.7 2.6 0.00 0.09 0.09 95 1003.2
20260510031605 50 254 1.7 4.3 0.00 0.09 0.09 95 1003.1
20260510030605 50 240 2.6 5.2 0.00 0.09 0.09 94 1003.1
20260510025605 51 236 2.6 5.2 0.01 0.09 0.09 95 1003.2
20260510023605 51 194 3.5 7.0 0.01 0.09 0.09 94 1003.0
20260510021605 52 215 4.3 10.4 0.01 0.09 0.09 94 1003.1
20260510020605 52 228 4.3 10.4 0.01 0.09 0.09 94 1002.9
20260510015605 53 231 3.5 8.7 0.00 0.09 0.09 94 1002.7
20260510014605 53 223 5.2 13.9 0.00 0.09 0.09 93 1002.7
20260510013605 53 200 6.1 10.4 0.01 0.09 0.09 93 1002.5
20260510012605 54 195 5.2 11.3 0.05 0.09 0.09 93 1002.6
20260510011606 54 198 4.3 10.4 0.07 0.09 0.09 93 1002.6
20260510010605 54 203 3.5 6.1 0.09 0.09 0.09 92 1002.3
20260510005605 55 214 1.7 7.0 0.09 0.09 0.09 92 1002.1
20260510004605 55 197 3.5 6.1 0.09 0.09 0.09 90 1001.9
20260510002605 56 207 4.3 10.4 0.04 0.04 0.04 86 1002.2
20260510001605 57 260 5.2 8.7 0.02 0.02 0.02 82 1001.8
20260510000605 58 196 1.7 4.3 0.00 0.00 0.00 78 1001.2
20260509235605 58 111 1.7 6.1 0.00 0.00 0.00 77 1000.9
20260509234605 58 139 2.6 6.1 0.00 0.00 0.00 76 1000.9
20260509232605 58 147 2.6 8.7 0.00 0.00 0.00 76 1001.0
20260509231605 59 116 5.2 7.8 0.00 0.00 0.00 75 1000.8
20260509230605 59 134 4.3 10.4 0.00 0.00 0.00 75 1001.0
20260509225604 59 126 4.3 10.4 0.00 0.00 0.00 74 1001.2
20260509224605 59 111 4.3 10.4 0.00 0.00 0.00 73 1001.6
20260509223608 60 131 2.6 5.2 0.00 0.00 0.00 72 1002.2
20260509222605 60 191 1.7 7.0 0.00 0.00 0.00 71 1002.5
20260509221605 60 155 5.2 11.3 0.00 0.00 0.00 69 1002.3
20260509220606 61 173 5.2 10.4 0.00 0.00 0.00 69 1002.2
20260509215605 61 180 6.1 15.6 0.00 0.00 0.00 69 1002.2
20260509214605 61 187 7.0 10.4 0.00 0.00 0.00 69 1002.0
20260509213605 61 183 3.5 11.3 0.00 0.00 0.00 67 1001.9
20260509212605 62 149 5.2 10.4 0.00 0.00 0.00 66 1002.2
20260509211605 62 149 4.3 12.2 0.00 0.00 0.00 66 1002.1
20260509210605 62 141 5.2 13.0 0.00 0.00 0.00 65 1001.9
20260509205605 63 146 6.1 10.4 0.00 0.00 0.00 63 1002.0
20260509204606 63 151 6.1 10.4 0.00 0.00 0.00 62 1002.1
20260509203605 64 135 5.2 13.0 0.00 0.00 0.00 60 1001.9
20260509202605 64 133 5.2 13.9 0.00 0.00 0.00 63 1002.2
20260509201605 64 155 5.2 15.6 0.00 0.00 0.00 61 1002.3
20260509200604 65 134 6.1 13.9 0.00 0.00 0.00 59 1002.4
20260509194605 66 186 8.7 13.9 0.00 0.00 0.00 56 1002.6
20260509192606 64 180 7.0 17.4 0.00 0.00 0.00 60 1002.8
20260509191605 64 200 6.1 13.0 0.00 0.00 0.00 60 1003.0
20260509190605 64 180 7.0 13.9 0.00 0.00 0.00 58 1003.2
20260509185605 64 169 6.1 13.9 0.00 0.00 0.00 58 1003.3
20260509184606 65 206 5.2 17.4 0.00 0.00 0.00 55 1003.4
20260509183605 65 158 6.1 12.2 0.00 0.00 0.00 54 1003.5
20260509182605 65 199 4.3 13.9 0.00 0.00 0.00 55 1003.4
20260509181605 65 118 6.1 11.3 0.00 0.00 0.00 53 1003.7
20260509180604 65 136 3.5 13.0 0.00 0.00 0.00 54 1003.6
20260509175605 65 120 5.2 13.9 0.00 0.00 0.00 50 1003.9
20260509174605 64 120 8.7 17.4 0.00 0.00 0.00 51 1003.9
20260509172605 64 181 5.2 13.9 0.00 0.00 0.00 53 1004.3
20260509171605 63 119 5.2 14.8 0.00 0.00 0.00 51 1004.4
20260509165605 63 134 8.7 15.6 0.00 0.00 0.00 45 1004.3
20260509164605 64 164 6.1 13.9 0.00 0.00 0.00 47 1004.3
20260509162604 64 141 6.1 19.1 0.00 0.00 0.00 52 1004.8
20260509161604 63 197 7.0 15.6 0.00 0.00 0.00 50 1004.9
20260509160605 63 112 7.8 12.2 0.00 0.00 0.00 51 1005.0
20260509155605 63 181 7.8 13.9 0.00 0.00 0.00 53 1005.2
20260509154605 63 190 6.1 12.2 0.00 0.00 0.00 54 1005.4
20260509153605 63 138 5.2 11.3 0.00 0.00 0.00 52 1005.5
20260509151605 60 127 6.1 17.4 0.00 0.00 0.00 57 1005.9
20260509150604 60 126 6.1 13.0 0.00 0.00 0.00 57 1005.9
20260509145606 60 136 6.1 13.9 0.00 0.00 0.00 56 1006.2
20260509144605 59 160 4.3 11.3 0.00 0.00 0.00 60 1006.2
20260509143605 58 98 5.2 11.3 0.00 0.00 0.00 60 1006.2
20260509142604 59 103 6.1 13.0 0.00 0.00 0.00 60 1006.4
20260509135605 58 187 5.2 10.4 0.00 0.00 0.00 61 1006.5
20260509134604 58 149 2.6 8.7 0.00 0.00 0.00 60 1006.5
20260509133605 57 149 6.1 11.3 0.00 0.00 0.00 60 1006.6
20260509132604 57 166 4.3 11.3 0.00 0.00 0.00 62 1006.7
20260509131604 57 156 6.1 10.4 0.00 0.00 0.00 63 1006.9
20260509130604 55 177 1.7 10.4 0.00 0.00 0.00 69 1006.9
20260509125605 53 359 5.2 7.8 0.00 0.00 0.00 72 1006.9
20260509124604 50 359 1.7 6.1 0.00 0.00 0.00 78 1006.8
20260509123604 49 359 2.6 7.0 0.00 0.00 0.00 75 1006.9
20260509122606 48 359 0.9 5.2 0.00 0.00 0.00 78 1006.9
20260509121605 47 359 0.9 5.2 0.00 0.00 0.00 82 1007.0